Regional Weather Roundup
Issued by NWS

Home | Current Version | Previous Version | Graphics & Text | Print | Product List | Glossary On
Versions: 1 2 3 4 5 6 7 8 9 10 11 12 13 14 15 16 17 18 19 20 21 22 23 24 25 26 27 28 29 30 31 32 33 34 35 36 37 38 39 40 41 42 43 44 45 46 47 48 49 50
000
ASUS43 KMPX 231110
RWRMN
WEATHER ROUNDUP FOR MINNESOTA
NATIONAL WEATHER SERVICE TWIN CITIES/CHANHASSEN MN
600 AM CDT WED JUL 23 2014


NOTE: "FAIR" INDICATES FEW OR NO CLOUDS BELOW 12,000 FEET WITH NO
SIGNIFICANT WEATHER AND/OR OBSTRUCTIONS TO VISIBILITY. N/A MEANS
CURRENT SKY AND/OR WEATHER CONDITIONS ARE NOT AVAILABLE.

MNZ060>063-068>070-231200-
   Twin Cities Metro

CITY           SKY/WX    TMP DP  RH WIND       PRES   REMARKS
TWIN CITIES    PTCLDY    63  57  81 NW5       30.23R
ST PAUL          N/A     61  56  83 NW6       30.23R
CRYSTAL        CLEAR     61  54  77 NW6       30.23R
BLAINE         CLEAR     59  57  94 NW5       30.24R
LAKEVILLE      CLEAR     57  55  94 NW3       30.23R
EDEN PRAIRIE   CLEAR     61  56  83 NW6       30.23R
SOUTH ST PAUL  CLEAR     62  56  80 CALM      30.22R
LAKE ELMO      FAIR      55  55 100 CALM      30.23S
$$
MNZ001>005-007-008-013>017-022>024-027-028-231200-
   Northwest Minnesota

CITY           SKY/WX    TMP DP  RH WIND       PRES   REMARKS
BEMIDJI        CLEAR     52  51  97 NW5       30.28R
HALLOCK        CLEAR     55  54  94 N6        30.29S
ROSEAU         CLEAR     52  46  82 N3        30.28S
WARROAD        PTCLDY    54  50  87 NW3       30.28S
THIEF RVR FALL CLEAR     57  54  88 N6        30.28F
CROOKSTON      CLEAR     59  55  88 CALM      30.29R
FOSSTON        CLEAR     52  48  87 CALM      30.29R
DETROIT LAKES  PTCLDY    59  55  88 NW3       30.30S
MOORHEAD       PTCLDY    59  59 100 CALM      30.28R
PARK RAPIDS    CLEAR     53  51  93 CALM      30.28R
$$
MNZ006-009>011-018-025>026-231200-
   North Central Minnesota

CITY           SKY/WX    TMP DP  RH WIND       PRES   REMARKS
BAUDETTE       CLEAR     55  54  96 CALM      30.28S
FLAG ISLAND    PTCLDY    61  57  88 NW6       30.27R
INTL FALLS     CLOUDY    60  55  83 N3        30.27R
WASKISH        CLEAR     54  54 100 NE3       30.27S
BIG FORK       CLEAR     52  50  93 N1        30.28R
LONGVILLE      CLEAR     54  52  94 CALM      30.26R
GRAND RAPIDS   PTCLDY    54  52  94 CALM      30.26R
CRANE LAKE     CLEAR     48  46  93 CALM      30.28R
ORR            PTCLDY    52  50  93 CALM      30.25R
COOK           MOCLDY    50  48  93 CALM      30.26R
$$
MNZ012-019>021-037-231200-
   Northeast Minnesota

CITY           SKY/WX    TMP DP  RH WIND       PRES   REMARKS
DULUTH         PTCLDY    56  51  84 N3        30.24R
ELY            CLEAR     48  46  93 CALM      30.26R
HIBBING        PTCLDY    53  51  93 NW6       30.26R
DULUTH HARBOR  CLEAR     57  55  94 CALM      30.23R
TWO HARBORS    PTCLDY    55  50  82 CALM      30.22R
SILVER BAY     CLEAR     55  55 100 CALM      30.22R
GRAND MARAIS     N/A     58  53  84 VRB3      30.20R
G MARAIS ARPRT CLEAR     54  48  82 N5        30.24R
$$
MNZ029>031-032-039>041-046>048-054>057-064-231200-
   West Central Minnesota

CITY           SKY/WX    TMP DP  RH WIND       PRES   REMARKS
FERGUS FALLS   CLEAR     59  54  82 E3        30.27F
WHEATON        CLEAR     54  52  94 CALM      30.31R
MORRIS         CLEAR     54  54 100 N3        30.27S
ALEXANDRIA     CLEAR     59  56  89 N5        30.30R
ELBOW LAKE     FAIR      60  57  91 NE3       30.28S
WADENA         CLEAR     55  54  94 CALM      30.28R
GLENWOOD       CLEAR     57  55  94 N6        30.29R
APPLETON       CLEAR     55  54  94 CALM      30.27R
BENSON         CLEAR     55  55 100 NE3       30.27S
ORTONVILLE     CLEAR     57  54  88 NW5       30.29R
MADISON        CLEAR     57  55  94 CALM      30.27R
WILLMAR        FAIR      59  54  82 N3        30.29R
$$
MNZ033>034-036-042>043-049>051-058-059-231200-
   Central Minnesota

CITY           SKY/WX    TMP DP  RH WIND       PRES   REMARKS
ST CLOUD       CLEAR     57  53  86 NW5       30.25R
SAUK CENTRE    FAIR      54  52  94 NW3       30.29R
PAYNESVILLE    CLEAR     48  48  99 SW3       30.28R
AITKIN         CLEAR     54  48  82 CALM      30.24S HAZE
PINE RIVER     PTCLDY    54  54 100 CALM      30.30R
BRAINERD       PTCLDY    56  54  93 CALM      30.27R
STAPLES        PTCLDY    54  52  94 CALM      30.28R
LONG PRAIRIE   FAIR      55  52  88 NW3       30.29R
LITTLE FALLS   CLEAR     52  50  93 CALM      30.27R FOG
LITCHFIELD       N/A     59  57  94 CALM      30.27R
BUFFALO        CLEAR     61  55  79 CALM      30.26R
MAPLE LAKE     CLEAR     59  56  89 NW3       30.26R
$$
MNZ037-044-045-052-053-231200-
   East Central Minnesota

CITY           SKY/WX    TMP DP  RH WIND       PRES   REMARKS
PRINCETON      CLEAR     54  52  94 W3        30.25R
MORA           CLEAR     55  50  82 CALM      30.25S
CAMBRIDGE      CLEAR     55  48  76 CALM      30.22R
RUSH CITY      MOCLDY    53  52  95 CALM      30.23S
MOOSE LAKE     PTCLDY    54  52  94 CALM      30.22R
HINCKLEY       FAIR      55  54  94 N3        30.23S
CLOQUET        PTCLDY    54  50  87 NW5       30.24R
MCGREGOR       PTCLDY    54  52  94 NW5       30.25R
$$
MNZ071>073-080-081-089-090-097-098-231200-
   Southwest Minnesota

CITY           SKY/WX    TMP DP  RH WIND       PRES   REMARKS
MONTEVIDEO     CLEAR     57  54  88 CALM      30.28R
GRANITE FALLS  CLEAR     56  54  95 N3        30.28S
CANBY          CLEAR     56  54  94 NW5       30.29R
MARSHALL       CLEAR     55  52  88 W3        30.26R
REDWOOD FALLS  CLEAR     60  54  80 N7        30.26R
OLIVIA         CLEAR     57  52  82 NW5       30.26R
PIPESTONE      CLEAR     57  54  88 NE5       30.27S
WINDOM         CLEAR     55  54  94 N5        30.26R
WORTHINGTON    PTCLDY    55  52  88 N7        30.27R
JACKSON        PTCLDY    55  52  88 NW5       30.26R
TRACY          CLEAR     58  55  90 NW5       30.27R
SLAYTON        CLEAR     55  54  95 CALM      30.27S
$$
MNZ065>067-074>077-082>085-091>093-231200-
   South Central Minnesota

CITY           SKY/WX    TMP DP  RH WIND       PRES   REMARKS
MANKATO        CLEAR     59  52  77 CALM      30.24R
NEW ULM        CLEAR     61  55  82 N5        30.24R
ST JAMES       CLEAR     55  54  94 NW6       30.26R
FAIRMONT       CLEAR     55  52  88 N8        30.23R
GLENCOE        CLEAR     59  54  81 N3        30.24R
FARIBAULT      CLEAR     57  52  82 N3        30.23R
OWATONNA       CLEAR     57  54  88 CALM      30.22R
WASECA         CLEAR     55  50  82 N5        30.24R
ALBERT LEA     CLEAR     59  57  94 CALM      30.22R
$$
MNZ078>079-086>088-094>096-231200-
   Southeast Minnesota

CITY           SKY/WX    TMP DP  RH WIND       PRES   REMARKS
ROCHESTER      CLEAR     61  56  83 NE5       30.22F
RED WING       MOCLDY    59  57  94 CALM      30.20S
STANTON        CLEAR     56  53  89 CALM      30.21R
DODGE CENTER   CLEAR     59  55  88 CALM      30.21F
WINONA         CLEAR     61  59  94 CALM      30.20S
AUSTIN         CLEAR     59  55  88 CALM      30.20F
PRESTON        PTCLDY    59  59 100 N3        30.21S
$$
ABBREVIATIONS USED IN REMARKS
   TC - TEMPERATURES IN CELSIUS
  WCI - WIND CHILL INDEX
   HX - HEAT INDEX
  VSB - VISIBILITY
$$


USA.gov is the U.S. government's official web portal to all federal, state and local government web resources and services.